Location: Ulm
(48.3980°N, 9.9777°E)
Time: 08:12:02
(UTC+01:00)

Amateur Radio Satellites - All Passes

Search period start: 22 November 2017 07:42
Search period end: 23 November 2017 07:42
Location: Ulm, 48.3980°N, 9.9777°E

Satellite Date Start Highest point End Downlink Frequencies (MHz)
Time Altitude Azimuth
PCSat 22 Nov 07:44:45 07:49:28 29° 39° (NE) 07:54:09 145.827
UNISAT 6 22 Nov 07:45:08 07:47:36 15° 59° (ENE) 07:50:02 437.425
YUBILEINY 22 Nov 07:45:25 07:52:54 30° 298° (WNW) 08:00:29 435.215
XW-2C 22 Nov 07:48:29 07:51:03 17° 297° (WNW) 07:53:36 145.795 - 145.815
TIGRISAT 22 Nov 07:49:14 07:51:44 15° 59° (ENE) 07:54:10 435.000
LilacSat-2 22 Nov 07:51:39 07:54:00 16° 298° (WNW) 07:56:21 437.200
Oscar 11 22 Nov 07:51:51 07:54:31 16° 90° (E) 07:57:11 .
XW-2F 22 Nov 07:58:44 08:00:55 15° 298° (WNW) 08:03:07 145.980 - 146.000
CUTE 1.7 + AOD 2 22 Nov 08:09:02 08:13:06 43° 290° (WNW) 08:17:09 437.475
HO-68 22 Nov 08:13:42 08:20:52 72° 291° (WNW) 08:28:00 435.675
ZACube-1 22 Nov 08:20:53 08:24:54 47° 99° (E) 08:28:56 437.345
STRAND 1 22 Nov 08:26:41 08:29:41 15° 272° (W) 08:32:41 437.568
KAITUO 1B 22 Nov 08:26:52 08:27:12 10° 302° (WNW) 08:27:32 145.475/437.950
PRISM 22 Nov 08:29:32 08:31:42 14° 58° (ENE) 08:33:52 437.425
UWE-3 22 Nov 08:32:28 08:36:36 71° 287° (WNW) 08:40:44 435.000/436.395/437.385
SEEDS 22 Nov 08:38:02 08:41:55 35° 292° (WNW) 08:45:47 437.485
AAUSAT CUBESAT 2 22 Nov 08:41:59 08:46:09 67° 286° (WNW) 08:50:18 437.432
XW-2A 22 Nov 08:42:52 08:46:07 45° 288° (WNW) 08:49:20 145.665 - 145.685
FO-29 22 Nov 09:05:10 09:11:25 38° 267° (W) 09:18:21 435.910
DELFI C3 22 Nov 09:05:20 09:08:15 19° 92° (E) 09:11:09 145.870
CUTE-I 22 Nov 09:07:03 09:08:45 12° 310° (NW) 09:10:28 437.470
BEESAT 3 22 Nov 09:08:41 09:10:55 14° 27° (NNE) 09:13:08 437.485
AO-73 22 Nov 09:11:25 09:15:29 57° 288° (WNW) 09:19:33 145.935
CUBEBUG 2 22 Nov 09:14:52 09:17:41 18° 299° (WNW) 09:20:29 437.445
UNISAT 6 22 Nov 09:19:12 09:23:45 80° 256° (WSW) 09:28:14 437.425
TIGRISAT 22 Nov 09:23:18 09:27:51 80° 257° (WSW) 09:32:19 435.000
Oscar 11 22 Nov 09:26:46 09:31:02 60° 288° (WNW) 09:35:18 .
PCSat 22 Nov 09:27:55 09:33:18 66° 240° (WSW) 09:38:40 145.827
QB50P2 22 Nov 09:39:04 09:39:47 10° 56° (NE) 09:40:30 145.880/145.840
EO-88 22 Nov 09:55:50 09:59:09 31° 97° (E) 10:02:27 145.990 - 145.960
ZACube-1 22 Nov 09:57:55 10:00:53 19° 297° (WNW) 10:03:52 437.345
AIST 2D 22 Nov 09:59:05 10:02:04 28° 68° (ENE) 10:05:05 435.315
Max Valier Satellite 22 Nov 09:59:25 10:03:00 49° 100° (E) 10:06:35 145.860
PRISM 22 Nov 10:02:17 10:06:24 75° 257° (WSW) 10:10:35 437.425
HO-68 22 Nov 10:02:45 10:07:27 19° 313° (NW) 10:12:08 435.675
AO-85 22 Nov 10:08:53 10:11:09 14° 22° (NNE) 10:13:31 145.980
BEESAT 2 22 Nov 10:21:55 10:24:52 19° 32° (NNE) 10:27:48 435.950
DUCHIFAT 1 22 Nov 10:24:29 10:27:33 20° 62° (ENE) 10:30:37 145.980
EO-79 22 Nov 10:32:17 10:35:56 29° 66° (ENE) 10:39:36 145.935-145.965
NANOSAT C BR1 22 Nov 10:34:58 10:38:33 27° 66° (ENE) 10:42:09 145.865
DELFI C3 22 Nov 10:39:23 10:43:12 42° 290° (WNW) 10:46:58 145.870
BEESAT 3 22 Nov 10:45:18 10:49:15 60° 48° (NE) 10:53:07 437.485
POLYITAN 1 22 Nov 10:47:30 10:51:28 40° 69° (ENE) 10:55:26 437.675
ESTCUBE 1 22 Nov 10:48:00 10:50:52 16° 90° (E) 10:53:44 437.505/2401.250
QB50P2 22 Nov 11:10:34 11:14:49 76° 74° (ENE) 11:19:04 145.880/145.840
BUGSAT 1 22 Nov 11:13:33 11:16:20 18° 61° (ENE) 11:19:06 437.445
PCSat 22 Nov 11:14:36 11:15:39 11° 259° (W) 11:16:42 145.827
EO-88 22 Nov 11:29:46 11:32:39 22° 294° (WNW) 11:35:30 145.990 - 145.960
AIST 2D 22 Nov 11:32:31 11:35:15 21° 266° (W) 11:38:00 435.315
Max Valier Satellite 22 Nov 11:34:16 11:36:28 15° 297° (WNW) 11:38:39 145.860
AO-85 22 Nov 11:48:21 11:52:41 42° 43° (NE) 11:57:20 145.980
LO-87 22 Nov 11:50:21 11:53:55 83° 288° (WNW) 11:57:27 145.935 - 145.965
SPROUT 22 Nov 11:53:50 11:56:52 19° 91° (E) 11:59:50 437.525
Oscar 19 22 Nov 11:56:24 12:00:49 30° 63° (ENE) 12:05:16 437.125/150
DUCHIFAT 1 22 Nov 11:58:48 12:02:54 49° 260° (W) 12:07:00 145.980
FALCONSAT 3 22 Nov 11:58:49 11:59:54 11° 183° (S) 12:00:57 435.103
BEESAT 2 22 Nov 11:59:03 12:03:08 85° 230° (SW) 12:07:07 435.950
EO-79 22 Nov 12:07:50 12:11:38 32° 264° (W) 12:15:27 145.935-145.965
NANOSAT C BR1 22 Nov 12:10:19 12:14:10 33° 263° (W) 12:18:01 145.865
M-CUBED/EXP-1 PRIME 22 Nov 12:20:21 12:21:58 12° 50° (NE) 12:23:39 437.505
ESTCUBE 1 22 Nov 12:23:36 12:28:06 63° 288° (WNW) 12:32:34 437.505/2401.250
BEESAT 3 22 Nov 12:23:48 12:26:21 17° 247° (WSW) 12:28:53 437.485
POLYITAN 1 22 Nov 12:24:01 12:27:23 23° 267° (W) 12:30:45 437.675
Gurwin Techsat 1B 22 Nov 12:29:07 12:34:05 42° 66° (ENE) 12:39:05 435.225
AO-7 22 Nov 12:33:34 12:39:35 23° 44° (NE) 12:45:38 .
O/OREOS (USA 219) 22 Nov 12:35:33 12:38:43 19° 101° (E) 12:41:54 437.305
VELOX 1 22 Nov 12:39:38 12:43:44 34° 97° (E) 12:47:47 145.980
BUGSAT 1 22 Nov 12:47:11 12:51:18 56° 259° (W) 12:55:24 437.445
QB50P2 22 Nov 12:49:22 12:51:07 12° 272° (W) 12:52:53 145.880/145.840
50 SAT 22 Nov 13:20:15 13:22:41 19° 94° (E) 13:25:06 437.505
DX 1 22 Nov 13:22:07 13:25:38 23° 94° (E) 13:29:07 434.975-435.025
AO-85 22 Nov 13:28:49 13:33:05 35° 241° (WSW) 13:37:37 145.980
SPROUT 22 Nov 13:28:54 13:33:01 49° 289° (WNW) 13:37:06 437.525
Oscar 19 22 Nov 13:35:09 13:40:00 42° 262° (W) 13:44:52 437.125/150
BEESAT 2 22 Nov 13:39:22 13:40:08 10° 251° (WSW) 13:40:55 435.950
ITAMSAT 1 22 Nov 13:51:31 13:55:40 24° 60° (ENE) 13:59:50 435.822/435.867
M-CUBED/EXP-1 PRIME 22 Nov 13:52:03 13:55:41 85° 252° (WSW) 13:59:40 437.505
YUBILEINY 22 Nov 13:57:49 14:00:45 12° 42° (NE) 14:03:41 435.215
UKube-1 22 Nov 14:01:33 14:05:34 35° 98° (E) 14:09:33 .
Gurwin Techsat 1B 22 Nov 14:09:26 14:14:09 31° 265° (W) 14:18:53 435.225
O/OREOS (USA 219) 22 Nov 14:13:08 14:17:41 59° 300° (WNW) 14:22:16 437.305
VELOX 1 22 Nov 14:16:13 14:20:05 29° 295° (WNW) 14:23:55 145.980
AO-7 22 Nov 14:22:52 14:31:07 75° 66° (ENE) 14:39:26 .
NO-84 22 Nov 14:24:12 14:26:31 16° 127° (SE) 14:28:56 435.350 FM
50 SAT 22 Nov 14:52:00 14:54:46 26° 292° (WNW) 14:57:31 437.505
DX 1 22 Nov 14:57:50 15:01:59 42° 292° (WNW) 15:06:06 434.975-435.025
BEESAT 22 Nov 15:22:08 15:26:34 37° 97° (E) 15:30:57 436.000
ITAMSAT 1 22 Nov 15:29:37 15:34:46 58° 259° (WSW) 15:39:57 435.822/435.867
ITUPSAT 1 22 Nov 15:32:33 15:37:07 45° 99° (E) 15:41:40 437.325
MOZHAYETS 4 22 Nov 15:33:59 15:38:32 64° 101° (E) 15:43:04
CUTE-I 22 Nov 15:35:58 15:36:33 10° 48° (NE) 15:37:08 437.470
UKube-1 22 Nov 15:37:48 15:41:28 27° 296° (WNW) 15:45:06 .
DOVE 4 22 Nov 15:39:08 15:43:49 37° 66° (ENE) 15:48:38 437.250
CUBESAT XI-V 22 Nov 15:48:59 15:52:50 24° 93° (E) 15:56:39 437.345
YUBILEINY 22 Nov 15:52:04 16:00:31 46° 69° (ENE) 16:08:53 435.215
O/OREOS (USA 219) 22 Nov 15:56:26 15:58:07 12° 321° (NW) 15:59:50 437.305
NO-84 22 Nov 15:59:29 16:03:16 85° 146° (SSE) 16:07:21 435.350 FM
AO-7 22 Nov 16:17:45 16:24:39 29° 267° (W) 16:31:36 .
XW-2D 22 Nov 16:18:57 16:21:12 15° 62° (ENE) 16:23:28 145.860 - 145.880
XW-2B 22 Nov 16:33:10 16:35:58 20° 65° (ENE) 16:38:47 145.730 - 145.750
NUDT-PHONESAT 22 Nov 16:42:58 16:45:32 18° 64° (ENE) 16:48:06 437.300
XW-2C 22 Nov 16:58:03 17:01:30 37° 70° (ENE) 17:04:59 145.795 - 145.815
HO-68 22 Nov 16:59:28 17:05:33 31° 56° (NE) 17:11:40 435.675
BEESAT 22 Nov 17:00:04 17:04:14 31° 296° (WNW) 17:08:23 436.000
LilacSat-2 22 Nov 17:01:29 17:05:03 43° 71° (ENE) 17:08:39 437.200
RS-15 22 Nov 17:03:51 17:12:26 23° 98° (E) 17:20:58 29.354- 29.394
CUBEBUG 2 22 Nov 17:06:18 17:06:57 10° 56° (NE) 17:07:36 437.445
XW-2F 22 Nov 17:07:28 17:11:00 43° 71° (ENE) 17:14:35 145.980 - 146.000
CUTE-I 22 Nov 17:10:15 17:15:26 52° 68° (ENE) 17:20:39 437.470
ITUPSAT 1 22 Nov 17:10:49 17:14:44 26° 298° (WNW) 17:18:38 437.325
MOZHAYETS 4 22 Nov 17:12:09 17:15:15 18° 300° (WNW) 17:18:20
DOVE 4 22 Nov 17:16:46 17:21:27 36° 265° (W) 17:26:19 437.250
KKS-1 22 Nov 17:17:08 17:21:22 40° 98° (E) 17:25:33 437.445
CUBESAT XI-V 22 Nov 17:25:55 17:30:23 44° 291° (WNW) 17:34:50 437.345
CUTE 1.7 + AOD 2 22 Nov 17:29:54 17:33:17 24° 65° (ENE) 17:36:41 437.475
KAITUO 1B 22 Nov 17:33:00 17:36:39 68° 74° (ENE) 17:40:21 145.475/437.950
NO-84 22 Nov 17:37:17 17:40:58 36° 348° (NNW) 17:44:52 435.350 FM
STARS 22 Nov 17:38:00 17:41:47 28° 95° (E) 17:45:33 437.465
YUBILEINY 22 Nov 17:49:03 17:57:25 49° 272° (W) 18:05:45 435.215
XW-2D 22 Nov 17:51:21 17:54:59 51° 260° (W) 17:58:40 145.860 - 145.880
SEEDS 22 Nov 17:57:37 18:01:11 28° 66° (ENE) 18:04:47 437.485
UWE-3 22 Nov 17:57:49 18:00:47 18° 62° (ENE) 18:03:43 435.000/436.395/437.385
AAUSAT CUBESAT 2 22 Nov 18:01:45 18:04:12 16° 60° (ENE) 18:06:40 437.432
XW-2B 22 Nov 18:06:29 18:09:56 36° 263° (W) 18:13:26 145.730 - 145.750
NUDT-PHONESAT 22 Nov 18:15:41 18:19:07 39° 262° (W) 18:22:35 437.300
XW-2C 22 Nov 18:33:06 18:35:49 19° 268° (W) 18:38:34 145.795 - 145.815
AO-73 22 Nov 18:35:12 18:38:18 20° 63° (ENE) 18:41:22 145.935
LilacSat-2 22 Nov 18:37:05 18:39:33 17° 269° (W) 18:42:01 437.200
CUBEBUG 2 22 Nov 18:38:16 18:42:48 70° 73° (ENE) 18:47:12 437.445
XW-2F 22 Nov 18:42:59 18:45:21 16° 269° (W) 18:47:44 145.980 - 146.000
HO-68 22 Nov 18:45:39 18:52:48 68° 256° (WSW) 19:00:01 435.675
Oscar 11 22 Nov 18:50:04 18:53:12 20° 62° (ENE) 18:56:21 .
CUTE-I 22 Nov 18:51:19 18:55:45 26° 267° (W) 19:00:14 437.470
STRAND 1 22 Nov 18:52:11 18:56:00 21° 91° (E) 18:59:47 437.568
KKS-1 22 Nov 18:54:02 18:57:45 26° 296° (WNW) 19:01:25 437.445
CUTE 1.7 + AOD 2 22 Nov 19:05:00 19:08:56 38° 263° (W) 19:12:54 437.475
KAITUO 1B 22 Nov 19:10:18 19:11:06 11° 272° (W) 19:11:52 145.475/437.950
RS-15 22 Nov 19:10:36 19:22:53 76° 122° (ESE) 19:35:02 29.354- 29.394
STARS 22 Nov 19:14:10 19:18:11 35° 293° (WNW) 19:22:09 437.465
NO-84 22 Nov 19:15:15 19:19:02 35° 9° (N) 19:22:59 435.350 FM
XW-2A 22 Nov 19:16:48 19:20:07 81° 257° (WSW) 19:23:28 145.665 - 145.685
ZACube-1 22 Nov 19:19:47 19:24:00 59° 73° (ENE) 19:28:10 437.345
UWE-3 22 Nov 19:32:30 19:36:52 58° 259° (W) 19:41:08 435.000/436.395/437.385
SEEDS 22 Nov 19:33:04 19:36:47 31° 265° (W) 19:40:34 437.485
AAUSAT CUBESAT 2 22 Nov 19:35:04 19:39:10 64° 258° (WSW) 19:43:19 437.432
DELFI C3 22 Nov 19:54:08 19:56:58 19° 63° (ENE) 19:59:49 145.870
FO-29 22 Nov 20:09:52 20:17:04 37° 92° (E) 20:23:52 435.910
AO-73 22 Nov 20:10:06 20:14:15 48° 261° (W) 20:18:20 145.935
ISS 22 Nov 20:17:20 20:19:18 15° 137° (SE) 20:21:17 437.550
CUBEBUG 2 22 Nov 20:17:21 20:19:51 14° 271° (W) 20:22:20 437.445
Oscar 11 22 Nov 20:24:50 20:29:00 50° 260° (W) 20:33:13 .
STRAND 1 22 Nov 20:30:32 20:35:35 60° 289° (WNW) 20:40:35 437.568
EO-88 22 Nov 20:36:56 20:39:54 24° 67° (ENE) 20:42:54 145.990 - 145.960
HO-68 22 Nov 20:38:35 20:41:54 13° 277° (W) 20:45:13 435.675
Max Valier Satellite 22 Nov 20:41:27 20:44:50 37° 70° (ENE) 20:48:14 145.860
SO-50 22 Nov 20:51:25 20:54:14 17° 111° (ESE) 20:57:04 436.795
NO-84 22 Nov 20:52:39 20:56:52 78° 29° (NNE) 21:01:09 435.350 FM
ZACube-1 22 Nov 20:58:03 21:00:39 16° 270° (W) 21:03:14 437.345
O/OREOS (USA 219) 22 Nov 21:02:23 21:04:27 13° 40° (NE) 21:06:30 437.305
nSIGHT-1 22 Nov 21:03:35 21:06:37 39° 147° (SSE) 21:09:39 .
UNISAT 6 22 Nov 21:08:12 21:10:47 16° 89° (E) 21:13:23 437.425
TIGRISAT 22 Nov 21:12:08 21:14:44 16° 90° (E) 21:17:18 435.000
RS-15 22 Nov 21:24:30 21:36:24 50° 329° (NNW) 21:48:04 29.354- 29.394
DELFI C3 22 Nov 21:27:35 21:31:24 45° 261° (W) 21:35:16 145.870
PRISM 22 Nov 21:41:40 21:43:11 12° 88° (E) 21:44:42 437.425
ESTCUBE 1 22 Nov 21:50:45 21:54:20 24° 63° (ENE) 21:57:55 437.505/2401.250
ISS 22 Nov 21:52:03 21:55:20 74° 155° (SSE) 21:58:37 437.550
FO-29 22 Nov 21:54:40 22:02:22 58° 293° (WNW) 22:09:41 435.910
EO-88 22 Nov 22:10:20 22:13:28 27° 265° (W) 22:16:37 145.990 - 145.960
STRAND 1 22 Nov 22:12:25 22:13:44 11° 309° (NW) 22:15:04 437.568
Max Valier Satellite 22 Nov 22:16:14 22:18:48 18° 268° (W) 22:21:22 145.860
LO-87 22 Nov 22:29:11 22:32:45 67° 74° (ENE) 22:36:20 145.935 - 145.965
SO-50 22 Nov 22:29:39 22:34:08 75° 310° (NW) 22:38:41 436.795
NO-84 22 Nov 22:30:26 22:33:56 25° 228° (SW) 22:37:24 435.350 FM
nSIGHT-1 22 Nov 22:39:36 22:42:47 57° 346° (NNW) 22:45:58 .
O/OREOS (USA 219) 22 Nov 22:40:14 22:44:48 67° 62° (ENE) 22:49:18 437.305
UNISAT 6 22 Nov 22:43:41 22:47:55 59° 288° (WNW) 22:52:05 437.425
TIGRISAT 22 Nov 22:47:37 22:51:50 58° 288° (WNW) 22:56:00 435.000
SPROUT 22 Nov 22:50:22 22:53:46 24° 64° (ENE) 22:57:12 437.525
AIST 2D 22 Nov 22:53:04 22:55:48 21° 93° (E) 22:58:31 435.315
PRISM 22 Nov 23:14:47 23:18:59 77° 286° (WNW) 23:23:07 437.425
ESTCUBE 1 22 Nov 23:26:37 23:30:54 44° 261° (W) 23:35:13 437.505/2401.250
ISS 22 Nov 23:28:46 23:31:57 47° 354° (N) 23:35:09 437.550
DUCHIFAT 1 22 Nov 23:39:24 23:42:28 19° 92° (E) 23:45:30 145.980
VELOX 1 22 Nov 23:39:58 23:44:14 48° 69° (ENE) 23:48:32 145.980
FO-29 22 Nov 23:41:12 23:45:48 17° 314° (NW) 23:50:20 435.910
RS-15 22 Nov 23:41:25 23:52:27 36° 2° (N) 00:03:05 29.354- 29.394
EO-79 22 Nov 23:48:15 23:51:59 30° 96° (E) 23:55:41 145.935-145.965
NANOSAT C BR1 22 Nov 23:50:28 23:54:07 28° 95° (E) 23:57:45 145.865
50 SAT 22 Nov 23:51:33 23:53:05 13° 62° (ENE) 23:54:38 437.505
POLYITAN 1 23 Nov 00:03:49 00:07:51 43° 99° (E) 00:11:51 437.675
LO-87 23 Nov 00:05:56 00:06:34 10° 272° (W) 00:07:12 145.935 - 145.965
SO-50 23 Nov 00:12:08 00:15:21 19° 332° (NNW) 00:18:37 436.795
PCSat 23 Nov 00:12:51 00:18:06 54° 117° (ESE) 00:23:23 145.827
nSIGHT-1 23 Nov 00:16:12 00:19:20 47° 7° (N) 00:22:26 .
DX 1 23 Nov 00:20:48 00:24:42 32° 66° (ENE) 00:28:37 434.975-435.025
O/OREOS (USA 219) 23 Nov 00:20:55 00:23:40 16° 261° (W) 00:26:22 437.305
SPROUT 23 Nov 00:25:24 00:29:27 40° 262° (W) 00:33:31 437.525
AIST 2D 23 Nov 00:25:53 00:29:01 30° 291° (WNW) 00:32:08 435.315
BUGSAT 1 23 Nov 00:26:09 00:28:34 15° 90° (E) 00:30:57 437.445
QB50P2 23 Nov 00:27:11 00:31:25 85° 104° (ESE) 00:35:37 145.880/145.840
Gurwin Techsat 1B 23 Nov 00:43:30 00:45:22 12° 85° (E) 00:47:14 435.225
PRISM 23 Nov 00:52:45 00:53:29 10° 305° (NW) 00:54:14 437.425
BEESAT 23 Nov 00:58:26 00:59:38 11° 52° (NE) 01:00:50 436.000
UKube-1 23 Nov 00:59:06 01:03:16 49° 69° (ENE) 01:07:28 .
MOZHAYETS 4 23 Nov 01:04:56 01:07:13 14° 57° (ENE) 01:09:29
ISS 23 Nov 01:05:29 01:08:44 60° 14° (NNE) 01:11:59 437.550
ITUPSAT 1 23 Nov 01:08:09 01:10:19 13° 54° (NE) 01:12:29 437.325
DUCHIFAT 1 23 Nov 01:14:21 01:18:21 45° 290° (WNW) 01:22:18 145.980
VELOX 1 23 Nov 01:17:35 01:20:55 21° 268° (W) 01:24:18 145.980
50 SAT 23 Nov 01:21:40 01:24:48 46° 260° (W) 01:27:58 437.505
EO-79 23 Nov 01:24:03 01:27:41 29° 294° (WNW) 01:31:20 145.935-145.965
NANOSAT C BR1 23 Nov 01:26:07 01:29:49 31° 293° (WNW) 01:33:29 145.865
POLYITAN 1 23 Nov 01:40:10 01:43:23 22° 297° (WNW) 01:46:34 437.675
Oscar 19 23 Nov 01:42:23 01:47:25 50° 100° (E) 01:52:26 437.125/150
nSIGHT-1 23 Nov 01:52:29 01:55:41 70° 206° (SSW) 01:58:52 .
RS-15 23 Nov 01:56:21 02:08:12 55° 35° (NE) 02:19:24 29.354- 29.394
SO-50 23 Nov 01:56:43 01:57:38 10° 357° (N) 01:58:32 436.795
PCSat 23 Nov 01:56:52 02:01:45 33° 318° (NW) 02:06:41 145.827
DX 1 23 Nov 01:57:01 02:00:52 30° 264° (W) 02:04:46 434.975-435.025
BUGSAT 1 23 Nov 02:00:18 02:04:16 54° 289° (WNW) 02:08:11 437.445
QB50P2 23 Nov 02:04:44 02:06:34 13° 302° (WNW) 02:08:24 145.880/145.840
BEESAT 3 23 Nov 02:15:12 02:18:40 29° 118° (ESE) 02:22:10 437.485
Gurwin Techsat 1B 23 Nov 02:20:51 02:26:12 78° 104° (ESE) 02:31:32 435.225
AO-7 23 Nov 02:21:38 02:27:02 18° 87° (E) 02:32:24 .
BEESAT 23 Nov 02:31:46 02:36:30 65° 72° (ENE) 02:41:15 436.000
UKube-1 23 Nov 02:36:24 02:39:32 19° 268° (W) 02:42:42 .
MOZHAYETS 4 23 Nov 02:39:09 02:43:42 88° 253° (WSW) 02:48:18
ISS 23 Nov 02:42:05 02:45:08 37° 214° (SSW) 02:48:11 437.550
ITUPSAT 1 23 Nov 02:42:35 02:47:23 80° 72° (ENE) 02:52:11 437.325
CUBESAT XI-V 23 Nov 02:55:36 02:59:46 36° 67° (ENE) 03:04:00 437.345
M-CUBED/EXP-1 PRIME 23 Nov 03:00:10 03:04:29 41° 104° (ESE) 03:08:53 437.505
Oscar 19 23 Nov 03:22:13 03:26:29 27° 298° (WNW) 03:30:44 437.125/150
nSIGHT-1 23 Nov 03:29:43 03:31:26 14° 224° (SW) 03:33:07 .
BEESAT 2 23 Nov 03:30:17 03:34:11 49° 122° (ESE) 03:38:07 435.950
SO-50 23 Nov 03:37:19 03:40:02 15° 22° (NNE) 03:42:47 436.795
ITAMSAT 1 23 Nov 03:38:41 03:43:31 37° 97° (E) 03:48:19 435.822/435.867
PCSat 23 Nov 03:44:26 03:46:53 13° 343° (NNW) 03:49:20 145.827
AO-85 23 Nov 03:47:03 03:50:25 28° 117° (ESE) 03:53:55 145.980
BEESAT 3 23 Nov 03:52:21 03:56:06 38° 317° (NW) 03:59:53 437.485
Gurwin Techsat 1B 23 Nov 04:01:52 04:05:34 19° 303° (WNW) 04:09:14 435.225
RS-15 23 Nov 04:09:28 04:21:06 64° 243° (WSW) 04:32:07 29.354- 29.394
BEESAT 23 Nov 04:11:35 04:14:43 17° 270° (W) 04:17:52 436.000
AO-7 23 Nov 04:12:45 04:21:10 78° 108° (ESE) 04:29:32 .
KKS-1 23 Nov 04:18:18 04:22:42 59° 71° (ENE) 04:27:08 437.445
MOZHAYETS 4 23 Nov 04:20:15 04:21:32 11° 274° (W) 04:22:50
ITUPSAT 1 23 Nov 04:23:17 04:25:47 14° 272° (W) 04:28:17 437.325
CUBESAT XI-V 23 Nov 04:33:11 04:37:11 29° 266° (W) 04:41:15 437.345
M-CUBED/EXP-1 PRIME 23 Nov 04:34:48 04:38:42 29° 300° (WNW) 04:42:41 437.505
STARS 23 Nov 04:37:40 04:41:47 40° 68° (ENE) 04:45:57 437.465
YUBILEINY 23 Nov 04:57:51 05:05:57 45° 87° (E) 05:14:08 435.215
BEESAT 2 23 Nov 05:08:40 05:12:07 26° 322° (NW) 05:15:36 435.950
DOVE 4 23 Nov 05:11:24 05:16:33 55° 99° (E) 05:21:24 437.250
SO-50 23 Nov 05:17:05 05:21:34 48° 44° (NE) 05:26:07 436.795
ITAMSAT 1 23 Nov 05:18:15 05:22:57 35° 296° (WNW) 05:27:37 435.822/435.867
XW-2D 23 Nov 05:21:15 05:23:03 13° 89° (E) 05:24:50 145.860 - 145.880
CUTE-I 23 Nov 05:24:44 05:27:47 15° 87° (E) 05:30:48 437.470
AO-85 23 Nov 05:26:58 05:30:40 38° 318° (NW) 05:34:36 145.980
PCSat 23 Nov 05:31:16 05:32:52 11° 10° (N) 05:34:27 145.827
BEESAT 3 23 Nov 05:33:24 05:34:44 11° 339° (NNW) 05:36:03 437.485
XW-2B 23 Nov 05:35:28 05:38:05 18° 92° (E) 05:40:42 145.730 - 145.750
NUDT-PHONESAT 23 Nov 05:42:40 05:44:48 15° 90° (E) 05:46:56 437.300
KKS-1 23 Nov 05:56:40 05:59:38 17° 269° (W) 06:02:38 437.445
XW-2C 23 Nov 06:00:33 06:04:02 33° 97° (E) 06:07:30 145.795 - 145.815
LilacSat-2 23 Nov 06:04:47 06:08:26 39° 98° (E) 06:12:03 437.200
AO-7 23 Nov 06:06:12 06:13:15 32° 309° (NW) 06:20:18 .
XW-2F 23 Nov 06:09:25 06:13:00 38° 98° (E) 06:16:34 145.980 - 146.000
HO-68 23 Nov 06:10:13 06:15:19 20° 88° (E) 06:20:23 435.675
STRAND 1 23 Nov 06:11:15 06:16:05 43° 67° (ENE) 06:20:57 437.568
STARS 23 Nov 06:14:36 06:18:15 25° 266° (W) 06:21:55 437.465
RS-15 23 Nov 06:24:46 06:30:48 16° 267° (W) 06:36:43 29.354- 29.394
FO-29 23 Nov 06:26:14 06:31:53 27° 54° (NE) 06:37:57 435.910
CUBEBUG 2 23 Nov 06:28:16 06:28:41 10° 86° (E) 06:29:05 437.445
KAITUO 1B 23 Nov 06:33:55 06:37:39 57° 101° (E) 06:41:22 145.475/437.950
CUTE 1.7 + AOD 2 23 Nov 06:45:51 06:49:32 27° 94° (E) 06:53:12 437.475
DOVE 4 23 Nov 06:49:40 06:53:49 25° 299° (WNW) 06:57:50 437.250
XW-2D 23 Nov 06:53:49 06:57:35 59° 286° (WNW) 07:01:20 145.860 - 145.880
YUBILEINY 23 Nov 06:54:16 07:02:42 50° 289° (WNW) 07:11:14 435.215
SO-50 23 Nov 06:57:52 07:01:52 29° 243° (WSW) 07:05:55 436.795
CUTE-I 23 Nov 07:03:07 07:08:32 86° 288° (WNW) 07:13:53 437.470
XW-2B 23 Nov 07:08:50 07:12:27 42° 289° (WNW) 07:16:04 145.730 - 145.750
AO-85 23 Nov 07:10:35 07:12:18 12° 342° (NNW) 07:14:03 145.980
SEEDS 23 Nov 07:12:28 07:16:18 32° 95° (E) 07:20:08 437.485
PCSat 23 Nov 07:13:57 07:18:20 24° 35° (NE) 07:22:42 145.827
AAUSAT CUBESAT 2 23 Nov 07:14:14 07:16:49 16° 89° (E) 07:19:25 437.432
NUDT-PHONESAT 23 Nov 07:15:19 07:18:55 48° 288° (WNW) 07:22:30 437.300
UWE-3 23 Nov 07:18:45 07:21:52 20° 92° (E) 07:24:58 435.000/436.395/437.385
XW-2C 23 Nov 07:35:01 07:38:03 23° 294° (WNW) 07:41:06 145.795 - 145.815
